YSCB

Canberra International Airport

Airport
ICAO code
YSCB
IATA Code
CBR
Summary
ICAO Region
APAC
ICAO Territory
Location

Canberra, Australian Capital Territory

Serving
Canberra
Elevation
1888 ft
Coordinates
35° 18' 19" S , 149° 11' 36" E
Metar
YSCB 231300Z AUTO 08003KT 9999 // NCD 02/01 Q1027 RF00.0/000.0

Airport map

Aerial View

SKYbrary Partners:

Safety knowledge contributed by: